Volver al catálogo

COSMOS 375 DEB

ActivoLEO
NORAD 4724·DEBRIS·🇷🇺 Russia

Lanzado Oct 30, 1970 desde Baikonur Cosmodrome

Loading…

Próximos Pases (próximas 24 horas)

TLE

ActualizadoSource: Space-Track

Época: Sep 14, 2026, 11:51 UTC

1 04724U 70091V   26257.49412118  .00001510  00000-0  26631-3 0  9994
2 04724  62.7768 228.8901 0400092 174.6351 185.9203 14.30461356771946

Sigue COSMOS 375 DEB en tiempo real con AllMySat

Download on the App Store